Regional Weather Roundup
Issued by NWS

Home | Current Version | Previous Version | Graphics & Text | Print | Product List | Glossary On
Versions: 1 2 3 4 5 6 7 8 9 10 11 12 13 14 15 16 17 18 19 20 21 22 23 24 25 26 27 28 29 30 31 32 33 34 35 36 37 38 39 40 41 42 43 44 45 46 47 48 49 50
680
ASUS44 KMEG 171910
RWRTN
TENNESSEE HOURLY STATE WEATHER ROUNDUP
NATIONAL WEATHER SERVICE MEMPHIS TN
100 PM CST WED JAN 17 2018

TNZ002-004-019-021-049-052-054-088>092-172000-
WEST TENNESSEE

CITY           SKY/WX    TMP DP  RH WIND       PRES   REMARKS
MEMPHIS INTL   FAIR      20  10  65 W7        30.71F WCI  11
NWS MEMPHIS      N/A     20 N/A N/A MISG        N/A
JACKSON        FAIR      15   7  70 NW6       30.70F WCI   6
DYERSBURG      FAIR      21   9  59 W6        30.72F WCI  13
SOMERVILLE     SUNNY     16   7  67 VRB7      30.68F WCI   6
COVINGTON      SUNNY     16   9  73 NW8       30.73F WCI   5
UNION CITY     SUNNY     16   7  67 CALM      30.70F
BOLIVAR        SUNNY     18   9  68 W7        30.68F WCI   8
PARIS          SUNNY     16   7  67 SW5       30.66F WCI   9
HUNTINGDON     SUNNY     16   7  67 NW5       30.67F WCI   9
LEXINGTON      SUNNY     18   9  68 W8        30.67F WCI   7
SELMER         SUNNY     18   7  62 VRB6      30.65F WCI   9
SAVANNAH       SUNNY     18   9  68 NW8       30.66F WCI   7
$$

TNZ008-025-027-028-033-062-065-066-172000-
NORTH MIDDLE TENNESSEE

CITY           SKY/WX    TMP DP  RH WIND       PRES   REMARKS
NASHVILLE      FAIR      19   8  62 N10G18    30.63F WCI   7
PORTLAND       CLOUDY    14   7  73 NW9       30.60F WCI   2
CLARKSVILLE    FAIR      14   5  67 NW6       30.65F WCI   5
SMYRNA         PTSUNNY   16   8  71 N8        30.64F WCI   5
COOKEVILLE     CLOUDY    14   5  67 N5        30.55F WCI   6
GALLATIN       CLOUDY    18   9  68 N8        30.65F WCI   7
CROSSVILLE     CLOUDY    12   5  73 N10G20    30.44F WCI  -1
$$

TNZ061-075-076-078-094-096-097-172000-
SOUTH MIDDLE TENNESSEE

CITY           SKY/WX    TMP DP  RH WIND       PRES   REMARKS
FAYETTEVILLE   PTSUNNY   18   9  68 N9G17     30.55F WCI   6
TULLAHOMA      MOSUNNY   14   9  79 N14       30.54F WCI  -1
WINCHESTER       N/A     16   9  73 N12       30.54F WCI   3
MCMINNVILLE    PTSUNNY   14   5  67 N7        30.56F WCI   4
COLUMBIA       SUNNY     18   9  68 N8        30.61F WCI   7
SHELBYVILLE    CLOUDY    14   7  73 NW13      30.60S WCI   0
$$

TNZ017-018-042-046-047-172000-
NORTHEAST TENNESSEE

CITY           SKY/WX    TMP DP  RH WIND       PRES   REMARKS
TRI CITIES     FAIR      20   5  52 N9        30.38F WCI   9
ELIZABETHTON   CLOUDY    18   9  68 NW5       30.37S WCI  11
$$

TNZ012-013-036-069-073-074-172000-
CENTRAL EAST TENNESSEE

CITY           SKY/WX    TMP DP  RH WIND       PRES   REMARKS
KNOXVILLE      FAIR      18   6  59 NE6       30.48F WCI  10
OAK RIDGE      FAIR      20   6  55 CALM      30.50F
DOWNTOWN KNOXV SUNNY     19   7  58 VRB3      30.51F
GATLINBURG     PTSUNNY   16   5  62 CALM      30.48F
MORRISTOWN     SUNNY     18   5  57 NW8G14    30.43F WCI   7
JACKSBORO      CLOUDY    16   5  62 VRB6G12   30.53S WCI   7
$$

TNZ083-085-099-172000-
SOUTHEAST TENNESSEE

CITY           SKY/WX    TMP DP  RH WIND       PRES   REMARKS
CHATTANOOGA    FAIR      24   7  48 N16G24    30.50F WCI  11
DAYTON         CLEAR     23  10  58 N15G22    30.50F WCI  10
$$

SKY/WX REPORTED AS FAIR MEANS FEW OR NO CLOUDS BELOW
12 THOUSAND FEET.





USA.gov is the U.S. government's official web portal to all federal, state and local government web resources and services.